Zurück zum Katalog

COSMOS 1275 DEB

AktivPO
NORAD 42097·DEBRIS·🇷🇺 Russia

Gestartet Jun 4, 1981 von Plesetsk Cosmodrome

Loading…

Nächste Überflüge (nächste 24 Stunden)

TLE

AktuellSource: Space-Track

Epoche: Sep 14, 2026, 08:57 UTC

1 42097U 81053PH  26257.37357595  .00002271  00000-0  90651-3 0  9991
2 42097  82.8029 284.7846 0054405  58.1798 302.4668 14.27345013203541

Verfolge COSMOS 1275 DEB in Echtzeit mit AllMySat

Download on the App Store